EDT,Max TemperatureF,Mean TemperatureF,Min TemperatureF,Max Dew PointF,MeanDew PointF,Min DewpointF,Max Humidity, Mean Humidity, Min Humidity, Max Sea Level PressureIn, Mean Sea Level PressureIn, Min Sea Level PressureIn, Max VisibilityMiles, Mean VisibilityMiles, Min VisibilityMiles, Max Wind SpeedMPH, Mean Wind SpeedMPH, Max Gust SpeedMPH,PrecipitationIn, CloudCover, Events, WindDirDegrees
2011-10-1,56,47,38,33,30,24,75,57,29,30.20,30.14,30.05,10,10,4,14,2,21,0.00,3,,358
2011-10-2,63,48,32,36,25,4,86,53,10,30.23,30.18,30.11,10,9,2,13,1,18,0.00,0,,328
2011-10-3,70,52,35,38,30,19,84,52,15,30.21,30.16,30.12,10,9,5,7,0,,0.00,0,,330
2011-10-4,73,56,38,41,31,19,83,50,13,30.32,30.27,30.21,10,9,3,0,0,,0.00,0,,-1
2011-10-5,79,62,44,43,35,20,80,51,11,30.32,30.27,30.21,10,9,5,0,0,,0.00,0,,-1
2011-10-6,80,64,47,47,40,32,78,48,18,30.33,30.28,30.24,10,6,0,0,0,,0.00,0,,-1
2011-10-7,82,66,51,47,40,30,73,47,15,30.40,30.34,30.30,10,4,1,0,0,,0.00,0,,-1
2011-10-8,81,65,49,49,43,35,79,49,19,30.40,30.35,30.32,10,8,0,0,0,,0.00,0,,-1
2011-10-9,78,64,49,51,43,28,83,55,16,30.40,30.34,30.27,10,8,2,0,0,,0.00,0,,-1
2011-10-10,78,66,53,44,39,32,64,43,20,30.27,30.21,30.10,10,9,5,0,0,,0.00,0,,-1
2011-10-11,78,64,51,44,36,22,68,40,12,30.11,30.04,29.96,10,10,7,9,0,17,0.00,0,,142
2011-10-12,71,62,52,48,42,38,71,50,29,29.97,29.87,29.76,10,10,7,10,0,17,0.00,3,,127
2011-10-13,61,56,51,55,51,45,83,80,76,29.73,29.59,29.49,10,5,2,0,0,,0.49,7,Rain,-1
2011-10-14,61,54,46,50,38,30,80,57,31,29.68,29.59,29.51,10,10,7,26,7,36,0.00,4,,275
2011-10-15,61,53,45,35,30,20,65,46,20,29.91,29.81,29.71,10,10,7,25,16,36,0.00,1,,273
2011-10-16,68,58,47,40,33,30,56,41,26,29.96,29.84,29.73,10,10,7,0,0,,0.00,3,Rain,-1
2011-10-17,59,48,36,32,22,6,72,40,12,29.92,29.89,29.84,10,10,7,14,0,21,0.00,2,,268
2011-10-18,50,46,43,39,37,30,80,74,47,29.89,29.83,29.76,10,8,2,0,0,,0.19,8,Rain,-1
2011-10-19,45,44,43,40,38,37,81,79,76,29.72,29.55,29.38,10,6,2,7,0,,0.52,8,Rain,20
2011-10-20,44,42,41,38,36,34,80,78,74,29.77,29.44,29.28,10,5,2,12,0,23,0.66,8,Rain,280
2011-10-21,52,43,34,35,32,30,83,65,41,30.09,30.01,29.88,10,10,5,0,0,,0.01,3,,-1
2011-10-22,60,45,30,32,26,20,84,57,21,30.14,30.11,30.07,10,10,7,0,0,,0.00,0,,-1
2011-10-23,66,54,42,35,31,29,62,50,25,30.05,30.02,29.96,10,9,7,0,0,,0.00,3,,-1
2011-10-24,61,56,49,46,37,18,81,57,19,30.14,30.02,29.92,10,8,4,0,0,,0.03,4,Rain,-1
2011-10-25,70,54,37,35,28,19,75,46,16,30.19,30.08,29.84,10,10,7,0,0,,0.00,1,,-1
2011-10-26,67,61,54,47,41,32,69,47,34,29.83,29.81,29.79,10,9,5,8,0,,0.00,6,,347
2011-10-27,47,44,41,42,36,30,81,73,51,30.09,29.93,29.84,10,8,2,13,8,17,0.05,7,Rain,358
2011-10-28,50,40,31,33,27,19,85,67,29,30.22,30.17,30.11,10,9,5,7,1,,0.00,1,,42
2011-10-29,53,43,33,30,25,8,76,56,16,30.10,30.06,30.04,10,10,7,16,7,22,0.00,2,,228
2011-10-30,55,41,27,28,23,15,81,57,20,30.21,30.15,30.06,10,9,7,20,4,24,0.00,3,,175
2011-10-31,56,49,42,37,27,17,76,46,22,30.12,30.04,30.01,10,10,7,14,8,25,0.00,5,Rain,231